This demonstration page uses our WeatherBlox Daily Observations layout. Learn more.

38.80484, -77.04692

Hourly Observations for September 5, 2016

Temp ( °F °C ) Dew Point ( °F °C ) Humidity (%) Winds ( mph kmh ) Pressure ( in mb ) Visibility ( mi km ) Precip ( " mm )
12:52 am 00:52 Clear 69 20.6 58 14.4 68 68 WSW 3 6 30.23 1024 10 16.0934 0 0
1:52 am 01:52 Clear 68 20 58 14.4 70 70 Calm 30.22 1024 10 16.0934 0 0
2:52 am 02:52 Clear 67 19.4 59 15 76 76 Calm 30.23 1024 10 16.0934 0 0
3:52 am 03:52 Mostly Clear 67 19.4 58 14.4 73 73 Calm 30.22 1023 10 16.0934 0 0
4:52 am 04:52 Partly Cloudy 65 18.3 57 13.9 76 76 N 5 7 30.23 1024 10 16.0934 0 0
5:52 am 05:52 Partly Cloudy 65 18.3 57 13.9 76 76 N 5 7 30.23 1024 10 16.0934 0 0
6:52 am 06:52 Mostly Sunny 65 18.3 57 13.9 76 76 N 5 7 30.23 1024 10 16.0934 0 0
7:52 am 07:52 Mostly Sunny 67 19.4 58 14.4 73 73 N 8 13 30.24 1024 10 16.0934 0 0
8:52 am 08:52 Mostly Sunny 72 22.2 60 15.6 66 66 NNW 7 11 30.24 1024 10 16.0934 0 0
9:52 am 09:52 Mostly Sunny 78 25.6 59 15 52 52 NE 7 11 30.25 1024 10 16.0934 0 0
10:52 am 10:52 Partly Cloudy 81 27.2 56 13.3 42 42 NNE 13 20 30.24 1024 10 16.0934 0 0
11:52 am 11:52 Partly Cloudy 83 28.3 57 13.9 41 41 N 9 15 30.22 1024 10 16.0934 0 0
12:52 pm 12:52 Partly Cloudy 84 28.9 57 13.9 40 40 NNE 9 15 30.2 1023 10 16.0934 0 0
1:52 pm 13:52 Partly Cloudy 86 30 57 13.9 37 37 N 9 15 30.17 1022 10 16.0934 0 0
2:52 pm 14:52 Mostly Cloudy 86 30 57 13.9 37 37 VRB 3 6 30.14 1021 10 16.0934 0 0
3:52 pm 15:52 Mostly Cloudy 86 30 58 14.4 39 39 VRB 5 7 30.11 1020 10 16.0934 0 0
4:52 pm 16:52 Mostly Cloudy 87 30.6 59 15 39 39 NW 9 15 30.1 1019 10 16.0934 0 0
5:52 pm 17:52 Mostly Cloudy 86 30 59 15 40 40 NW 8 13 30.09 1019 10 16.0934 0 0
6:52 pm 18:52 Partly Cloudy 84 28.9 58 14.4 41 41 NW 7 11 30.09 1019 10 16.0934 0 0
7:52 pm 19:52 Partly Cloudy 83 28.3 58 14.4 43 43 WSW 6 9 30.08 1019 10 16.0934 0 0
8:52 pm 20:52 Partly Cloudy 79 26.1 59 15 50 50 SSW 5 7 30.09 1019 10 16.0934 0 0
9:52 pm 21:52 Partly Cloudy 78 25.6 59 15 52 52 WSW 5 7 30.09 1019 10 16.0934 0 0
10:52 pm 22:52 Partly Cloudy 78 25.6 59 15 52 52 WNW 6 9 30.09 1019 10 16.0934 0 0
11:52 pm 23:52 Partly Cloudy 77 25 59 15 54 54 WNW 5 7 30.09 1019 10 16.0934 0 0

Powered by AerisWeather